Home   Weather   Dharamshala   Past weeks

Flag for India Past Weather in Dharamshala, Himachal Pradesh, India — Yesterday and Last 2 Weeks

Now
68 °F

Haze.


Feels Like: 68 °F
Forecast: 41 / 62 °F
Wind: No wind

Location: Amritsar Airport

Current Time: Feb 26, 2017 at 8:15:16 pm

Latest Report: Feb 26, 2017 at 7:00 pm


Visibility: 3 mi

Pressure: 29.89 "Hg (25.44 "Hg at 1382m altitude)

Humidity: 60%

Dew Point: 54 °F

Location of DharamshalaLocation

Past Weather in Dharamshala — Graph

°F

Dharamshala Temperature Yesterday

Maximum temperature yesterday: 77 °F (at 3:30 pm)
Minimum temperature yesterday: 48 °F (at 4:30 am)
Average temperature yesterday: 62 °F

High & Low Weather Summary for the Past Weeks

 TemperatureHumidityPressure
High82 °F (Feb 19, 1:00 pm)100% (Feb 12, 12:00 am)30.24 "Hg (Feb 12, 12:00 am)
Low41 °F (Feb 12, 6:00 am)27% (Feb 21, 5:30 pm)29.65 "Hg (Feb 20, 3:30 pm)
Average62 °F78%30.01 "Hg
* Reported Feb 11 6:30 pm — Feb 26 7:00 pm, Dharamshala, Weather by CustomWeather, © 2017

Note: Actual official high and low records may vary slightly from our data, if they occured in-between our weather recording intervals... More about our weather records

Advertising

Dharamshala Weather History for the Previous 24 Hours

Scroll right to see more
 ConditionsComfort  
Time TempWeatherWind HumidityBarometerVisibility
7:00 pm
Sun, Feb 26
68 °FHaze.No wind60%29.89 "Hg3 mi
6:30 pm70 °FHaze.2 mph57%29.89 "Hg3 mi
6:00 pm72 °FHaze.5 mph53%29.89 "Hg3 mi
5:30 pm75 °FHaze.7 mph47%29.89 "Hg3 mi
5:00 pm77 °FHaze.9 mph42%29.89 "Hg3 mi
4:30 pm77 °FHaze.9 mph39%29.89 "Hg3 mi
4:00 pm77 °FHaze.10 mph39%29.89 "Hg3 mi
3:30 pm77 °FHaze.12 mph36%29.89 "Hg3 mi
3:00 pm77 °FClear.9 mph39%29.89 "Hg4 mi
2:30 pm75 °FClear.8 mph41%29.89 "Hg4 mi
2:00 pm75 °FClear.8 mph39%29.92 "Hg4 mi
1:30 pm73 °FHaze.7 mph44%29.92 "Hg3 mi
1:00 pm73 °FHaze.7 mph50%29.95 "Hg3 mi
12:30 pm72 °FHaze.7 mph57%29.95 "Hg2 mi
12:00 pm70 °FHaze.6 mph53%29.95 "Hg2 mi
11:30 am70 °FHaze.6 mph53%29.98 "Hg2 mi
11:00 am70 °FHaze.5 mph53%29.98 "Hg1 mi
10:30 am66 °FHaze.2 mph60%29.95 "Hg1 mi
10:00 am63 °FHaze.2 mph64%29.95 "Hg1 mi
9:30 am57 °FFog.2 mph77%29.95 "Hg1 mi
9:00 am54 °FFog.2 mph82%29.95 "Hg1 mi
8:30 am52 °FFog.No wind100%29.95 "Hg1 mi
8:00 am48 °FFog.No wind100%29.95 "Hg1 mi
7:30 am46 °FFog.No wind100%29.92 "Hg1 mi
7:00 am48 °FFog.No wind100%29.92 "Hg1 mi
6:30 am48 °FFog.2 mph100%29.89 "Hg1 mi
6:00 am48 °FFog.2 mph100%29.92 "Hg1 mi
5:30 am50 °FFog.No wind100%29.92 "Hg1 mi
5:00 am50 °FFog.No wind100%29.92 "Hg1 mi
4:30 am50 °FFog.No wind100%29.92 "Hg1 mi
4:00 am50 °FFog.No wind88%29.92 "Hg1 mi
3:30 am52 °FFog.No wind82%29.92 "Hg1 mi
3:00 am52 °FFog.No wind82%29.92 "Hg1 mi
2:00 am52 °FFog.No wind82%29.95 "Hg2 mi
1:30 am52 °FFog.No wind77%29.95 "Hg2 mi
1:00 am55 °FHaze.No wind72%29.95 "Hg2 mi
12:30 am54 °FHaze.No wind72%29.95 "Hg2 mi
12:00 am54 °FHaze.No wind77%29.95 "Hg2 mi
11:30 pm
Sat, Feb 25
55 °FHaze.No wind72%29.95 "Hg2 mi
11:00 pm57 °FHaze.No wind67%29.95 "Hg2 mi
10:30 pm57 °FHaze.No wind67%29.98 "Hg2 mi
10:00 pm57 °FHaze.No wind72%29.95 "Hg2 mi
9:30 pm57 °FHaze.No wind77%29.95 "Hg2 mi
9:00 pm59 °FHaze.No wind72%29.95 "Hg2 mi
8:30 pm61 °FHaze.No wind72%29.95 "Hg2 mi
8:00 pm59 °FHaze.No wind72%29.95 "Hg3 mi
Weather by CustomWeather, © 2017

See weather overviewHow to use our weather pages

LIVE ANNULAR SOLAR ECLIPSE – Watch the eclipse as it happens